Location: Rock Island IL
(41.5000°N, 90.5500°W)
Time: 17:31:32
(UTC-06:00)

Tiangong 2 - Visible Passes

Search period start: 20 February 2018 00:00
Search period end: 02 March 2018 00:00
Orbit: 384 x 388 km, 42.8° (Epoch: 20 February)

Date Brightness Start Highest point End Pass type
(mag) Time Alt. Az. Time Alt. Az. Time Alt. Az.
20 Feb 1.6 18:57:12 10° W 19:00:18 52° SSW 19:01:40 28° SE visible
21 Feb 3.3 19:35:28 10° W 19:37:51 20° SSW 19:38:03 19° SSW visible
22 Feb 2.6 18:36:09 10° W 18:39:02 32° SSW 18:41:54 10° SE visible
23 Feb 4.1 19:15:23 10° SW 19:16:26 11° SW 19:17:27 10° SSW visible
24 Feb 3.7 18:15:18 10° W 18:17:39 19° SSW 18:20:00 10° SSE visible
